This demonstration page uses our WeatherBlox Daily Observations layout. Learn more.

Left ArrowRight Arrow

39.01783, -85.05884

Hourly Observations for December 22, 2017

Temp ( °F °C ) Dew Point ( °F °C ) Humidity (%) Winds ( mph kmh ) Pressure ( in mb ) Visibility ( mi km ) Precip ( " mm )
12:52 am 00:52 Cloudy 55 12.8 51 10.6 87 87 SSW 13 20 29.89 1012 10 16 0.00 0.00
1:52 am 01:52 Cloudy 55 12.8 51 10.6 87 87 SSW 13 20 29.91 1013 10 16 0.00 0.00
2:52 am 02:52 Cloudy 55 12.8 51 10.6 87 87 SW 10 17 29.93 1014 10 16 0.00 0.03
3:52 am 03:52 Cloudy with Light Rain 54 12.2 51 10.6 90 90 SSW 14 22 29.93 1014 8 13 0.00 0.03
4:13 am 04:13 Cloudy with Drizzle 53 11.7 51 10.6 93 93 SW 10 17 29.94 1014 8 13 0.00 0.03
4:40 am 04:40 Cloudy 53 11.7 52 11.1 96 96 SW 13 20 29.94 1014 10 16 0.00 0.03
4:52 am 04:52 Cloudy 53 11.7 52 11.1 96 96 SW 15 24 29.93 1014 10 16 0.00 0.03
5:52 am 05:52 Cloudy 53 11.7 52 11.1 96 96 SW 12 19 29.94 1014 10 16 0.00 0.03
6:15 am 06:15 Cloudy 53 11.7 52 11.1 96 96 SW 14 22 29.97 1015 10 16 0.00 0.00
6:52 am 06:52 Cloudy with Mist and Fog 53 11.7 52 11.1 96 96 SW 12 19 29.97 1015 6 10 0.00 0.00
7:52 am 07:52 Cloudy 53 11.7 52 11.1 96 96 SW 8 13 29.97 1015 7 11 0.00 0.00
8:52 am 08:52 Cloudy 53 11.7 52 11.1 96 96 SSW 7 11 29.98 1015 7 11 0.00 0.00
9:52 am 09:52 Cloudy 54 12.2 52 11.1 93 93 SSW 9 15 29.99 1016 8 13 0.00 0.00
10:52 am 10:52 Cloudy 54 12.2 53 11.7 97 97 SSW 9 15 30.00 1016 8 13 0.00 0.00
11:00 am 11:00 Cloudy 54 12.2 53 11.7 97 97 SSW 8 13 30.00 1016 8 13 0.00 0.00
11:52 am 11:52 Cloudy with Mist and Fog 54 12.2 53 11.7 97 97 SSW 8 13 29.98 1015 6 10 0.00 0.00
12:52 pm 12:52 Cloudy with Drizzle 54 12.2 54 12.2 100 100 SSW 8 13 29.95 1014 5 8 0.00 0.03
1:52 pm 13:52 Cloudy with Drizzle 54 12.2 54 12.2 100 100 SSW 6 9 29.94 1014 4 6 0.00 0.03
2:09 pm 14:09 Cloudy with Drizzle 54 12.2 54 12.2 100 100 SSW 7 11 29.94 1014 3 4 0.00 0.03
2:26 pm 14:26 Cloudy with Drizzle 54 12.2 54 12.2 100 100 SSW 6 9 29.94 1014 2 3 0.00 0.03
2:46 pm 14:46 Cloudy with Drizzle 54 12 54 12 100 100 SW 6 9 29.97 1015 2 2 0.00 0.03
2:52 pm 14:52 Cloudy with Drizzle 54 12.2 54 12.2 100 100 SSW 6 9 29.96 1014 2 2 0.00 0.03
3:00 pm 15:00 Cloudy with Drizzle 54 12.2 54 12.2 100 100 SSW 5 7 29.97 1015 1 1 0.00 0.03
3:49 pm 15:49 Cloudy with Drizzle 54 12 54 12 100 100 SW 5 7 29.97 1015 1 1 0.01 0.25
3:52 pm 15:52 Cloudy with Drizzle 54 12.2 54 12.2 100 100 SW 3 6 29.96 1015 1 1 0.01 0.25
4:52 pm 16:52 Cloudy with Drizzle 54 12.2 54 12.2 100 100 SSW 5 7 29.96 1014 1 1 0.00 0.03
5:31 pm 17:31 Cloudy with Drizzle 53 11.7 53 11.7 100 100 SSW 5 7 29.97 1015 2 2 0.00 0.03
5:52 pm 17:52 Cloudy with Drizzle 53 11.7 53 11.7 100 100 S 6 9 29.95 1014 2 2 0.00 0.03
6:13 pm 18:13 Cloudy with Drizzle 53 11.7 53 11.7 100 100 SSW 5 7 29.97 1015 2 3 0.00 0.03
6:52 pm 18:52 Cloudy with Drizzle 53 11.7 53 11.7 100 100 SSW 3 6 29.96 1015 2 3 0.00 0.03
7:45 pm 19:45 Cloudy with Light Rain 53 11.7 53 11.7 100 100 SSW 5 7 29.97 1015 3 4 0.03 0.76
7:52 pm 19:52 Cloudy with Light Rain 53 11.7 53 11.7 100 100 W 5 7 29.95 1014 3 4 0.03 0.76
8:12 pm 20:12 Cloudy with Light Rain 53 11.7 53 11.7 100 100 WSW 3 6 29.97 1015 3 4 0.00 0.03
8:37 pm 20:37 Cloudy with Light Rain 53 11.7 53 11.7 100 100 W 3 6 29.94 1014 2 2 0.01 0.25
8:52 pm 20:52 Cloudy with Light Rain 53 11.7 53 11.7 100 100 WSW 3 6 29.93 1014 2 2 0.01 0.25
9:52 pm 21:52 Cloudy with Light Rain 53 11.7 53 11.7 100 100 WSW 3 6 29.93 1014 2 2 0.03 0.76
10:12 pm 22:12 Cloudy with Light Rain 53 11.7 53 11.7 100 100 Calm 29.94 1014 2 2 0.01 0.25
10:52 pm 22:52 Cloudy with Light Rain 53 11.7 53 11.7 100 100 SW 3 6 29.93 1014 2 2 0.04 1.02
11:52 pm 23:52 Cloudy with Rain 53 11.7 53 11.7 100 100 Calm 29.92 1013 2 2 0.12 3.05

Powered by AerisWeather